Погода в Сьоне

Швейцария     46°13′46″N   7°21′52″E
темп.,
°C
ветер,
м/с
пор.,
м/с
влажн.,
%
обл.,
%
осадки,
мм/ч
давл.,
гПа
погр.,
м
4 августа, ср
ср423:00+8ю0197100 2.3 101866
02:00+8св1195100 3.1 101746
05:00+8в1196100 0.5 101554
08:00+10всв128998 0.6 101597
11:00+10зсз1189100 0.4 1014206
14:00+10ссз0195100 4.6 1014138
17:00+11з1193100 2.6 1013277
20:00+9зсз2298100 4.6 101485
5 августа, чт
чт523:00+9ю1198100 1.3 101527
02:00+8ююв119723 1.4 101413
05:00+6юв119622 0.1 101427
08:00+8юз0193100 0.1 1013123
11:00+12з1178100 0.3 1013650
14:00+14зсз327630 1.5 1011892
17:00+14зсз227263 0.6 1011956
20:00+12сз128659 0.8 101283
6 августа, пт
пт623:00+9зюз1190100 0.1 101417
02:00+7ююв119498 0.1 101317
05:00+6вюв118636 0.0 101216
08:00+9юв017429 0.0 101276
11:00+16з23545 0.0 10111058
14:00+19зсз234396 0.0 10091413
17:00+19зсз335589 0.0 10091054
20:00+14сз228416 0.0 101138
7 августа, сб
сб723:00+9вюв00945 0.0 101310
02:00+9в22896 0.0 101217
05:00+9в328121 0.0 101228
08:00+11в33755 0.0 101082
11:00+20юв23436 0.0 10061142
14:00+22зюз343992 0.0 10051922
17:00+18сз3371100 1.3 1007274
20:00+12сз229990 4.9 1011132
8 августа, вс
вс823:00+10зсз2398100 11.3 1014123
02:00+9юз019895 14.9 101582
05:00+9зюз119896 0.3 101562
08:00+10з119660 0.4 1016176
11:00+12з228775 0.3 1016446
14:00+15сз336856 0.6 10161123
17:00+15сз226557 0.1 10171098
20:00+13сз127940 0.2 101954